This demonstration page uses our WeatherBlox Daily Observations layout. Learn more.

Left ArrowRight Arrow

Hourly Observations for May 27, 2022

Temp ( °F °C ) Dew Point ( °F °C ) Humidity (%) Winds ( mph kmh ) Pressure ( in mb ) Visibility ( mi km ) Precip ( " mm )
12:51 am 00:51 Clear 74 23.3 27 -2.8 17 17 NNW 8 13 29.78 1009 10 16 0.00 0.00
1:51 am 01:51 Clear 78 25.6 28 -2.2 16 16 NW 9 15 29.78 1009 10 16 0.00 0.00
2:51 am 02:51 Clear 78 25.6 29 -1.7 16 16 NW 12 19 29.79 1009 10 16 0.00 0.00
3:51 am 03:51 Clear 72 22.2 28 -2.2 19 19 NNW 7 11 29.80 1009 10 16 0.00 0.00
4:51 am 04:51 Clear 70 21.1 28 -2.2 21 21 NW 6 9 29.83 1010 10 16 0.00 0.00
5:51 am 05:51 Sunny 65 18.3 26 -3.3 23 23 SSE 3 6 29.86 1011 10 16 0.00 0.00
6:51 am 06:51 Sunny 72 22.2 27 -2.8 19 19 ESE 5 7 29.87 1012 10 16 0.00 0.00
7:51 am 07:51 Sunny 79 26.1 30 -1.1 17 17 SSE 5 7 29.88 1012 10 16 0.00 0.00
8:51 am 08:51 Sunny 85 29.4 34 1.1 16 16 NW 6 9 29.87 1012 10 16 0.00 0.00
9:51 am 09:51 Sunny 90 32.2 34 1.1 14 14 VRB 6 9 29.85 1011 10 16 0.00 0.00
10:51 am 10:51 Sunny 93 33.9 32 0 11 11 WSW 6 9 29.83 1010 10 16 0.00 0.00
11:51 am 11:51 Sunny 94 34.4 32 0 11 11 VRB 3 6 29.81 1009 10 16 0.00 0.00
12:51 pm 12:51 Sunny 96 35.6 32 0 10 10 S 5 7 29.78 1009 10 16 0.00 0.00
1:51 pm 13:51 Sunny 99 37.2 32 0 9 9 SW 8 13 29.74 1007 10 16 0.00 0.00
2:51 pm 14:51 Sunny 100 37.8 32 0 9 9 WSW 9 15 29.70 1006 10 16 0.00 0.00
3:51 pm 15:51 Sunny 101 38.3 32 0 9 9 undefined N/A 29.68 1005 10 16 0.00 0.00
4:51 pm 16:51 Sunny 100 37.8 32 0 9 9 NW 13 20 29.67 1005 10 16 0.00 0.00
5:51 pm 17:51 Sunny 99 37.2 32 0 9 9 NW 10 17 29.66 1005 10 16 0.00 0.00
6:51 pm 18:51 Sunny 95 35 33 0.6 11 11 NW 10 17 29.66 1004 10 16 0.00 0.00
7:51 pm 19:51 Clear 91 32.8 34 1.1 13 13 NW 18 30 29.67 1005 10 16 0.00 0.00
8:51 pm 20:51 Clear 87 30.6 34 1.1 15 15 NW 12 19 29.69 1005 10 16 0.00 0.00
9:51 pm 21:51 Clear 82 27.8 33 0.6 17 17 WNW 12 19 29.70 1006 10 16 0.00 0.00
10:51 pm 22:51 Clear 82 27.8 34 1.1 18 18 WNW 10 17 29.69 1005 10 16 0.00 0.00
11:51 pm 23:51 Clear 78 25.6 33 0.6 19 19 NW 7 11 29.70 1006 10 16 0.00 0.00

Powered by AerisWeather